Simultaneous Nadir Overpasses (SNOs) Predictions

Prediction of SNOs between GOES-17 and TERRA Satellite Orbit:

Table of predicted SNOs for the next 14.0 days since TLE Epoch: 10/24/2020
Index Date Time (GOES-17) GOES-17 Lat,Lon TERRA Lat,Lon Distance(km) Time Diff (sec)
1 10/25/2020 19:33:44 -0.04,-137.20 -0.39,-135.59 183.74 80
2 10/26/2020 07:55:08 0.04,-137.21 -0.72,-140.78 405.44 80
3 10/28/2020 07:42:56 0.03,-137.22 -0.09,-137.82 68.59 80
4 10/30/2020 07:28:04 0.03,-137.22 0.54,-134.87 267.84 80
5 10/30/2020 19:49:19 -0.03,-137.21 0.57,-140.02 319.51 80
6 11/01/2020 19:39:47 -0.03,-137.20 -0.06,-137.06 16.10 80
7 11/03/2020 19:27:35 -0.03,-137.19 -0.70,-134.10 350.92 80
8 11/04/2020 07:48:58 0.03,-137.19 -0.40,-139.30 238.87 80
9 11/06/2020 07:34:05 0.02,-137.17 0.18,-136.33 94.97 80
10 11/06/2020 19:55:21 -0.02,-137.15 0.88,-141.49 493.23 80
